Lid_Strength_Index
16 14 13 14 15 14 15 14 16 14 14 11 10 9 8 8 8 6 6 6 7 8 9 9 9 8 9 9 9 9 9 9 9 10 10 10 10 10 10 10 11 11 11 11
18 14 13 15 14 14 15 14 14 14 13 10 8 8 8 10 10 10 7 6 7 7 8 9 8 9 9 9 9 9 9 9 9 9 9 9 10 10 10 11 11 12 12 12
20 16 16 20 16 15 14 13 13 16 13 10 10 9 11 12 12 12 10 8 7 7 8 8 8 8 9 9 9 9 9 9 9 9 9 10 10 10 11 11 12 13 13 13
19 18 30 16 13 13 14 11 10 10 12 12 13 11 11 11 12 12 12 11 9 6 6 7 8 8 9 9 9 9 9 9 9 9 9 9 10 10 11 11 12 13 14 13
22 19 17 16 13 13 14 14 10 12 12 12 11 11 11 11 10 11 11 11 9 6 6 7 7 7 8 8 9 9 9 9 9 9 9 9 10 11 10 10 12 12 13 14
16 20 25 14 11 9 10 15 9 9 11 13 13 16 14 11 11 10 10 11 10 5 6 7 7 7 8 9 9 10 9 8 8 8 9 10 10 10 10 10 11 12 13 13
17 18 16 12 10 9 15 14 9 9 10 11 13 13 11 11 12 10 10 11 10 6 7 7 6 7 8 9 9 9 8 8 8 8 9 9 10 10 10 10 10 11 12 13
16 21 19 10 10 13 10 8 8 8 9 10 9 11 11 11 11 11 11 11 11 11 7 7 6 7 8 9 8 8 8 8 8 8 9 9 10 10 11 11 11 11 12 14
15 15 10 8 9 8 6 8 8 7 9 9 10 11 11 11 11 12 11 10 10 11 10 6 7 7 8 8 8 8 8 8 8 8 9 9 10 11 11 11 11 12 12 14
14 12 11 10 8 8 8 9 9 9 10 10 11 11 11 11 10 11 11 11 10 11 12 9 6 7 7 7 8 8 9 9 9 9 9 9 9 10 10 11 11 12 13 14
14 13 11 10 9 8 8 8 8 9 9 9 10 11 11 11 11 11 11 11 10 11 12 12 10 6 7 7 8 9 8 9 9 9 9 10 9 10 10 10 11 12 12 13
15 11 11 12 9 8 8 9 9 9 9 9 9 10 10 11 10 10 11 11 11 11 11 11 11 6 6 7 8 8 9 9 9 10 9 10 11 14 13 12 12 12 12 12
11 9 9 9 8 8 8 8 8 8 8 9 9 9 9 10 10 11 10 10 12 11 10 10 11 10 6 6 7 8 9 9 9 10 10 11 12 13 14 14 13 12 12 12
7 8 9 8 9 7 7 8 7 7 8 8 9 9 9 9 10 11 12 11 10 12 11 10 11 10 5 7 8 8 8 10 10 10 10 12 12 12 12 13 14 16 14 13
7 6 7 6 7 7 7 7 8 9 9 9 9 9 9 9 10 11 11 11 10 11 12 11 11 10 5 6 8 8 9 9 9 9 10 11 12 13 13 13 14 17 16 16
6 6 6 7 7 7 7 7 8 8 8 9 9 9 9 9 9 9 9 10 11 11 11 12 11 9 6 7 7 8 9 10 10 9 11 11 12 13 13 14 15 16 17 17
8 9 8 8 8 8 8 7 7 8 7 8 8 8 9 9 9 9 9 9 10 10 10 12 12 9 7 6 8 8 9 10 10 10 11 11 12 12 13 14 15 16 16 17
6 6 6 7 7 8 8 7 7 7 8 7 7 8 9 9 10 9 9 9 10 11 10 10 11 9 8 6 7 8 9 9 9 11 11 11 12 12 13 14 14 15 17 18
5 6 6 6 6 7 7 7 7 7 7 7 7 9 9 10 10 9 9 9 10 12 11 10 11 10 8 7 7 7 8 9 10 11 11 11 12 12 13 14 14 15 17 19
6 6 6 6 6 7 7 7 7 7 7 7 8 9 10 10 10 10 9 10 10 10 10 10 9 10 9 8 9 8 8 9 10 11 11 11 12 12 13 14 15 16 17 18
8 8 8 8 8 8 8 8 8 9 8 8 8 9 9 9 10 10 10 10 9 10 10 10 9 10 9 9 9 8 9 9 10 11 11 11 12 12 13 14 15 16 17 18
8 8 9 9 9 9 8 7 7 8 8 8 9 8 9 9 9 10 9 10 8 9 10 11 10 10 9 10 8 8 9 9 10 10 11 11 12 12 13 14 15 16 17 17
9 9 9 9 9 8 8 8 8 8 8 8 9 9 9 8 8 10 11 9 8 8 10 11 10 10 10 9 8 9 9 9 10 10 10 10 11 12 12 13 14 15 16 17
9 8 8 8 8 9 10 9 8 8 8 7 7 7 8 9 8 9 9 8 8 9 10 11 10 10 10 9 9 10 9 9 9 10 10 10 11 11 12 13 14 15 16 16
9 9 9 9 9 9 8 8 8 7 7 6 5 5 6 7 8 8 8 8 8 9 10 11 10 10 10 9 10 10 9 9 10 10 10 11 11 12 12 13 14 15 15 15
10 10 9 9 9 8 8 7 8 7 6 5 5 5 6 6 6 7 8 8 8 9 10 10 10 10 10 9 10 10 10 10 10 10 10 11 11 12 13 13 14 15 14 14
10 9 9 9 9 8 8 7 8 7 6 7 9 8 7 6 6 7 8 9 8 9 9 10 10 10 10 10 10 10 10 10 10 10 10 11 11 12 13 13 13 14 14 14